Location: Northam
(31.6525°S, 116.6655°E)
Time: 17:56:02
(UTC+08:00)

Courier 1B Rocket - All Passes

Search period start: 15 June 2021 00:00
Search period end: 25 June 2021 00:00
Orbit: 920 x 1202 km, 28.2° (Epoch: 14 June)

Date Brightness Start Highest point End Pass type
(mag) Time Alt. Az. Time Alt. Az. Time Alt. Az.
15 Jun - 06:27:24 10° N 06:32:08 18° NNE 06:37:03 10° ENE visible
15 Jun - 08:18:05 10° NW 08:25:10 44° NNE 08:32:32 10° E daylight
15 Jun - 10:11:02 10° WNW 10:18:45 68° N 10:26:33 10° E daylight
15 Jun - 12:04:44 10° W 12:12:31 63° N 12:20:08 10° ENE daylight
15 Jun - 13:58:57 10° W 14:05:57 36° NNW 14:12:40 10° NE daylight
15 Jun - 15:55:49 10° WNW 15:58:51 13° NNW 16:01:49 10° N daylight
16 Jun - 05:29:00 10° NNE 05:31:13 11° NE 05:33:28 10° NE visible
16 Jun - 07:17:31 10° NW 07:24:03 35° NNE 07:30:54 10° E daylight
16 Jun - 09:09:56 10° WNW 09:17:26 62° N 09:25:12 10° E daylight
16 Jun - 11:03:25 10° W 11:11:12 68° N 11:18:59 10° ENE daylight
16 Jun - 12:57:22 10° W 13:04:48 46° NNW 13:12:02 10° NE daylight
16 Jun - 14:52:39 10° WNW 14:57:53 20° NNW 15:02:59 10° NNE daylight
17 Jun - 06:17:19 10° NNW 06:23:02 26° NNE 06:29:02 10° E visible
17 Jun - 08:08:59 10° WNW 08:16:12 54° NNE 08:23:47 10° E daylight
17 Jun - 10:02:11 10° W 10:09:52 70° N 10:17:42 10° E daylight
17 Jun - 11:55:56 10° W 12:03:35 55° NNW 12:11:08 10° ENE daylight
17 Jun - 13:50:29 10° W 13:56:52 28° NNW 14:03:05 10° NNE daylight
18 Jun - 05:17:41 10° N 05:22:07 18° NNE 05:26:44 10° ENE visible
18 Jun - 07:08:14 10° NW 07:15:02 44° NNE 07:22:15 10° E daylight
18 Jun - 09:01:03 10° WNW 09:08:33 68° N 09:16:21 10° E daylight
18 Jun - 10:54:37 10° W 11:02:18 63° N 11:10:02 10° ENE daylight
18 Jun - 12:48:43 10° W 12:55:47 36° NNW 13:02:42 10° NE daylight
18 Jun - 14:45:27 10° WNW 14:48:46 13° NNW 14:52:02 10° N daylight
19 Jun - 04:19:37 10° NNE 04:21:15 11° NE 04:22:54 10° NE visible
19 Jun - 06:07:46 10° NW 06:13:59 34° NNE 06:20:37 10° E visible
19 Jun - 08:00:03 10° WNW 08:07:17 62° N 08:14:56 10° E daylight
19 Jun - 09:53:24 10° W 10:00:59 68° N 10:08:48 10° ENE daylight
19 Jun - 11:47:14 10° W 11:54:36 46° NNW 12:01:59 10° NE daylight
19 Jun - 13:42:25 10° WNW 13:47:46 20° NNW 13:53:02 10° NNE daylight
20 Jun - 05:07:38 10° NNW 05:13:02 25° NNE 05:18:45 10° E visible
20 Jun - 06:59:11 10° WNW 07:06:05 53° NNE 07:13:29 10° E daylight
20 Jun - 08:52:17 10° W 08:59:41 70° N 09:07:28 10° E daylight
20 Jun - 10:45:53 10° W 10:53:22 55° NNW 11:01:00 10° ENE daylight
20 Jun - 12:40:19 10° W 12:46:42 28° NNW 12:53:03 10° NNE daylight
21 Jun - 04:08:05 10° N 04:12:11 17° NNE 04:16:26 10° ENE visible
21 Jun - 05:58:32 10° NW 06:05:00 43° NNE 06:11:58 10° E visible
21 Jun - 07:51:14 10° WNW 07:58:25 67° N 08:06:04 10° E daylight
21 Jun - 09:44:40 10° W 09:52:06 62° N 09:59:50 10° ENE daylight
21 Jun - 11:38:38 10° W 11:45:35 36° NNW 11:52:35 10° NE daylight
21 Jun - 13:35:16 10° WNW 13:38:38 13° NNW 13:42:00 10° N daylight
22 Jun - 03:10:35 10° NNE 03:11:22 10° NNE 03:12:09 10° NE visible
22 Jun - 04:58:07 10° NW 05:04:02 33° NNE 05:10:20 10° E visible
22 Jun - 06:50:19 10° WNW 06:57:13 61° N 07:04:39 10° E daylight
22 Jun - 08:43:33 10° W 08:50:50 67° N 08:58:33 10° ENE daylight
22 Jun - 10:37:14 10° W 10:44:24 45° NNW 10:51:47 10° NE daylight
22 Jun - 12:32:19 10° WNW 12:37:36 20° NNW 12:42:54 10° NNE daylight
23 Jun - 03:58:02 10° NNW 04:03:08 24° NNE 04:08:31 10° ENE visible
23 Jun - 05:49:32 10° WNW 05:56:06 53° NNE 06:03:12 10° E visible
23 Jun - 07:42:30 10° W 07:49:35 69° N 07:57:11 10° E daylight
23 Jun - 09:35:59 10° W 09:43:12 54° NNW 09:50:45 10° ENE daylight
23 Jun - 11:30:18 10° W 11:36:31 27° NNW 11:42:51 10° NNE daylight
24 Jun - 02:58:31 10° N 03:02:19 16° NNE 03:06:16 10° ENE visible
24 Jun - 04:48:55 10° NW 04:55:05 42° NNE 05:01:43 10° E visible
24 Jun - 06:41:33 10° WNW 06:48:23 67° N 06:55:47 10° E visible
24 Jun - 08:34:51 10° W 08:41:59 61° N 08:49:33 10° ENE daylight
24 Jun - 10:28:42 10° W 10:35:24 35° NNW 10:42:19 10° NE daylight
24 Jun - 12:25:19 10° WNW 12:28:30 13° NNW 12:31:42 10° N daylight
